This is the latest recevied weather packets stored in our database for station/object KD9IXX-13. If no packets are shown the sender has not sent any weather packets the latest 1 day(s).
| Time | Temp. | Humidity | Pressure | Rain* | Wind** | Luminosity | Snow |
|---|---|---|---|---|---|---|---|
| 1778015702 | 12.22° C | 43% | 1010.7 hPa | 0 mm | 0.89 m/s, 323° | 101 W/m² | - |
| 1778015402 | 12.22° C | 45% | 1010.8 hPa | 0 mm | 0.89 m/s, 312° | 122 W/m² | - |
| 1778015102 | 12.22° C | 42% | 1010.8 hPa | 0 mm | 1.34 m/s, 297° | 121 W/m² | - |
| 1778014802 | 12.22° C | 42% | 1011.1 hPa | 0 mm | 1.34 m/s, 296° | 123 W/m² | - |
| 1778014502 | 12.22° C | 44% | 1011 hPa | 0 mm | 2.24 m/s, 322° | 149 W/m² | - |
| 1778014202 | 12.22° C | 48% | 1011 hPa | 0 mm | 1.79 m/s, 304° | 144 W/m² | - |
| 1778013901 | 12.22° C | 49% | 1010.8 hPa | 0 mm | 1.34 m/s, 284° | 131 W/m² | - |
| 1778013603 | 12.22° C | 48% | 1011 hPa | 0 mm | 1.34 m/s, 297° | 117 W/m² | - |
| 1778013303 | 12.22° C | 50% | 1011 hPa | 0 mm | 0.89 m/s, 10° | 113 W/m² | - |
| 1778013002 | 12.22° C | 47% | 1011.2 hPa | 0 mm | 1.79 m/s, 272° | 119 W/m² | - |
| 1778012702 | 12.22° C | 47% | 1011.1 hPa | 0 mm | 1.34 m/s, 343° | 116 W/m² | - |
| 1778012401 | 12.22° C | 48% | 1011.1 hPa | 0 mm | 0.45 m/s, 296° | 118 W/m² | - |
| 1778012102 | 12.22° C | 49% | 1011.3 hPa | 0 mm | 1.34 m/s, 292° | 125 W/m² | - |
| 1778011802 | 12.22° C | 46% | 1011.2 hPa | 0 mm | 1.34 m/s, 296° | 115 W/m² | - |
| 1778011502 | 12.22° C | 47% | 1011 hPa | 0 mm | 0.89 m/s, 296° | 123 W/m² | - |
| 1778011201 | 12.22° C | 47% | 1011.1 hPa | 0 mm | 2.24 m/s, 319° | 122 W/m² | - |
| 1778010902 | 12.22° C | 48% | 1011.1 hPa | 0 mm | 0.89 m/s, 260° | 131 W/m² | - |
| 1778010602 | 12.22° C | 46% | 1010.9 hPa | 0 mm | 1.34 m/s, 281° | 138 W/m² | - |
| 1778010302 | 12.22° C | 46% | 1010.7 hPa | 0 mm | 1.79 m/s, 295° | 142 W/m² | - |
| 1778010002 | 12.78° C | 45% | 1011 hPa | 0 mm | 1.34 m/s, 294° | 145 W/m² | - |
| 1778009702 | 12.78° C | 47% | 1011 hPa | 0 mm | 1.79 m/s, 313° | 138 W/m² | - |
| 1778009402 | 12.78° C | 47% | 1011.1 hPa | 0 mm | 0.45 m/s, 295° | 141 W/m² | - |
| 1778009102 | 12.78° C | 45% | 1011.2 hPa | 0 mm | 1.34 m/s, 342° | 143 W/m² | - |
| 1778008802 | 12.78° C | 46% | 1011 hPa | 0 mm | 2.24 m/s, 274° | 149 W/m² | - |
| 1778008502 | 12.78° C | 49% | 1011 hPa | 0 mm | 0.89 m/s, 270° | 168 W/m² | - |
* Rain latest hour (hover to see other rain measurements)
** Current wind speed in m/s (hover to see current wind gust speed)